Location: Croissy-Beaubourg
(48.8283°N, 2.6696°E)
Time: 00:21:07
(UTC+00:00)

USA 215 - Pass Details

Date: 28 May 2022
Orbit: 1099 x 1108 km, 123.0° (Epoch: 10 June)

Event Time Altitude Azimuth Distance (km) Brightness Sun altitude
Rises 22:09:49 0° 58° (ENE) 3,928 6.3 -16.4°
Reaches altitude 10° 22:12:39 10° 68° (ENE) 2,968 5.5 -16.5°
Maximum altitude 22:18:21 31° 129° (SE) 1,820 3.9 -16.9°
Enters shadow 22:20:39 25° 163° (SSE) 2,051 4.1 -17.0°
